This is the latest recevied weather packets stored in our database for station/object KE5AKC. If no packets are shown the sender has not sent any weather packets the latest 10 day(s).
| Time | Temp. | Humidity | Pressure | Rain* | Wind** | Luminosity | Snow |
|---|---|---|---|---|---|---|---|
| 1776974908 | 28.89° C | 64% | 1010.3 hPa | 0 mm | - | 902 W/m² | - |
| 1776974607 | 28.89° C | 62% | 1010.7 hPa | 0 mm | - | 935 W/m² | - |
| 1776974303 | 28.89° C | 62% | 1010.7 hPa | 0 mm | - | 941 W/m² | - |
| 1776974001 | 28.89° C | 64% | 1010.7 hPa | 0 mm | - | 977 W/m² | - |
| 1776973698 | 28.89° C | 63% | 1010.7 hPa | 0 mm | - | 950 W/m² | - |
| 1776973396 | 28.89° C | 64% | 1010.7 hPa | 0 mm | - | 952 W/m² | - |
| 1776973092 | 28.89° C | 62% | 1010.3 hPa | 0 mm | - | 948 W/m² | - |
| 1776972789 | 28.89° C | 63% | 1010.7 hPa | 0 mm | - | 947 W/m² | - |
| 1776972484 | 28.89° C | 64% | 1010.7 hPa | 0 mm | - | 974 W/m² | - |
| 1776972182 | 28.89° C | 63% | 1011 hPa | 0 mm | - | 1013 W/m² | - |
| 1776971877 | 28.89° C | 64% | 1010.7 hPa | 0 mm | - | 966 W/m² | - |
| 1776971575 | 28.33° C | 66% | 1011 hPa | 0 mm | - | 987 W/m² | - |
| 1776971272 | 28.89° C | 64% | 1011.3 hPa | 0 mm | - | 978 W/m² | - |
| 1776970968 | 28.89° C | 65% | 1011 hPa | 0 mm | - | 989 W/m² | - |
| 1776970666 | 28.33° C | 65% | 1011.3 hPa | 0 mm | - | 1029 W/m² | - |
| 1776970363 | 28.89° C | 64% | 1011.7 hPa | 0 mm | - | 1010 W/m² | - |
| 1776970059 | 28.89° C | 62% | 1011.7 hPa | 0 mm | - | 1158 W/m² | - |
| 1776969757 | 28.89° C | 63% | 1011.3 hPa | 0 mm | - | 1030 W/m² | - |
| 1776969453 | 28.89° C | 63% | 1011.3 hPa | 0 mm | - | 1042 W/m² | - |
| 1776969150 | 27.78° C | 67% | 1011.7 hPa | 0 mm | - | 1081 W/m² | - |
| 1776968846 | 27.78° C | 66% | 1011.7 hPa | 0 mm | - | 1059 W/m² | - |
| 1776968540 | 27.78° C | 67% | 1011.7 hPa | 0 mm | - | 1067 W/m² | - |
| 1776968236 | 28.33° C | 64% | 1012 hPa | 0 mm | - | 352 W/m² | - |
| 1776967933 | 28.33° C | 65% | 1012 hPa | 0 mm | - | 1060 W/m² | - |
| 1776967630 | 28.33° C | 65% | 1012 hPa | 0 mm | - | 1086 W/m² | - |
* Rain latest hour (hover to see other rain measurements)
** Current wind speed in m/s (hover to see current wind gust speed)